Witgoed

Lees voor het posten de FAQ.

Als je iets zoekt op het forum kun je de zoekmachine raadplegen.

Onderwerp Replies Naam starter Datum
Miele wasmachine: centrifugeert slecht - check detergent 22 Dirko 22-10-2021 18:30:25
Vragen over een Douwe Egberts Caifitesse 50/51 10 Captainpatje 22-10-2021 18:24:15
Itho Daalderop Close-In 10 boiler vermogen verminderen Itho Daalderop Close-In 10 boiler vermogen verminderen 1 2 laatste 41 McAwesome 22-10-2021 16:05:10
Smeg Oven wordt niet meer warm Smeg Oven wordt niet meer warm 1 2 laatste 29 Femke1 21-10-2021 15:28:19
Siemens vaatwasser SX66M054EU/43 foutcode E20 7 Enterprise100 20-10-2021 11:16:52
Bosch combi oven warmt niet Bosch combi oven warmt niet 1 2 3 laatste 59 ed670 19-10-2021 20:56:09
Hoe kan dit werken Miele S8310 stofzuiger 3 ZeHa 19-10-2021 20:50:05
aansluitschema circulatiepomp 6 pamwikkeling 19-10-2021 19:13:52
Zout in vaatwasser lijkt niet op te raken Zout in vaatwasser lijkt niet op te raken 1 2 laatste 40 buzzy 18-10-2021 18:50:27
Siemens combi HFT879, metingen na storing 23 Appel 18-10-2021 18:47:26
Whirlpool ARG 451/A+ verlichting doet het niet en lijkt niet te koelen? 5 TheCrazyInventor 17-10-2021 18:52:56
E2 Storing siemens vaatwasser 8 Arjen1104 16-10-2021 19:14:12
Miele ELP165S - 2 machines dezelfde fout 1 JanEB 16-10-2021 19:10:02
Siemens wtxl2100nl 6 Jimmy15 15-10-2021 19:38:31
koffie apparaat jura impressa f50 3 gerard1 14-10-2021 23:45:05
Temperatuurinstellen bij pelgrim magnetron 7 Senior01 14-10-2021 19:24:50
[Jura Impressa C65] Display deels uitgevallen 6 RvH 13-10-2021 18:21:51
Hittebestendige lak micro oven 21 BRNRDS 13-10-2021 12:01:21
Wasdroger motor start SOMSniet 6 JMT 12-10-2021 18:53:36
Weerstandswaarde in schemerschakelaar Weerstandswaarde in schemerschakelaar 1 2 laatste 33 buzzy 11-10-2021 21:25:39
Miele T8703 print dood 8 avh86 11-10-2021 18:36:53
Algemeen: Askoll motor M500 serie draait niet,tikkend relais of niets??? 23 smd 11-10-2021 18:31:25
[WT46E3760NL] Siemens droger valt regelmatig uit 15 iMars 10-10-2021 18:37:22
Siemens/Bosch MU600 motormodule uitwisselbaar? 1 Joentje1978 09-10-2021 18:49:24
Klokje Smeg SE398X 21 wolfram5521 09-10-2021 09:34:14
Combi oven Siemens HB79e54 20 WillemR 08-10-2021 23:46:31
Miele W753 stalen trommelkruis in softronic Miele W753 stalen trommelkruis in softronic 1 2 laatste 45 KellyDK 08-10-2021 18:45:21
Excellence 4680p wasmachine warmt niet genoeg en programma te kort. 0 EricN 08-10-2021 12:52:41
Miele W2515 met printplaat ELP152 15 Bavelt 06-10-2021 22:47:32
DeLonghi Dinamica algemeen alarm (ECAM 350.55) 10 MGKMSH 06-10-2021 10:59:41
oven/magnetron daewoo KOC-985T BI 12 trix 05-10-2021 22:40:19
Atag inductiekookplaat HI 511 M ,jaar 2002 12 Elisa75 05-10-2021 20:40:09
Nest Thermostaat 15 Eagle Eye 05-10-2021 17:58:49
DeLonghi ECAM650.55.MS - niet in te schakelen 8 RvH 04-10-2021 18:23:11
Miele W1 Classic ( WDD330) start niet Miele W1 Classic ( WDD330) start niet 1 2 laatste 30 JanEB 03-10-2021 22:00:55
Atag oven CS657 4M 3 Mrah 03-10-2021 21:20:28
Hoe detecteert een Bosch condensdroger de afvoerwaterslang? 6 Boet 03-10-2021 15:36:31
Miele koelkast k9414if koelt wat te goed 21 staafken 29-09-2021 11:53:52
Miele printplaat ELP 165-S defect 6 drukvaatje 26-09-2021 18:10:41
AEG Lavatherm model T56840L doet niets meer 13 ray_308 24-09-2021 13:52:53
Inbouwkoffieapparaat van Electrolux espresso 3810 Inbouwkoffieapparaat van Electrolux espresso 3810 1 2 laatste 27 nonkel_dw 24-09-2021 08:35:12
AEG lavatherm Warmtepompdroger schakelt uit in standby (en dan niet meer aan) 12 BjornH. 22-09-2021 18:23:49
Miele T8999WP droger maakt bonkend geluid, hoe te demonteren? 12 Nikolai Tesla 21-09-2021 18:27:16
ELP262-A 11 PIRON 20-09-2021 13:17:35
Miele T420c 9 fabrice 20-09-2021 13:07:02
Bosch vaatwasser SGS5942/13 6 aes 20-09-2021 12:59:42
Zanussi fje1404g stopt wasprogramma na 15 minuten 4 HoiPeet 19-09-2021 14:43:37
Nefit Economy HR foutcode 4F 7 buzzy 18-09-2021 22:47:08
Samsung wasmachine WF70F5E0Q4W/EN 19 66kV 18-09-2021 18:57:20
Siemens CT636LES 1/05 2 Bobcat 18-09-2021 18:48:12